Weather in Artyshta

Russia / Kemerovo Oblast     54°07′04″N   86°16′21″E
temp.,
°C
wind,
m/s
gust,
m/s
humid.,
%
clouds,
%
prec.,
mm/h
press.,
hPa
HPBL,
m
24 july, sat
sat2401:00+18e2580100 0.0 1004126
04:00+18se1184100 0.0 100428
07:00+17se2592100 0.0 1005198
10:00+22sse247650 0.1 1004600
13:00+26ssw335675 0.1 10041516
16:00+24ssw346736 0.6 1005820
19:00+23sw34681 0.9 1005610
22:00+18ssw11952 0.0 100611
25 july, sun
sun2501:00+17s22975 0.0 100628
04:00+16sw239934 0.0 100677
07:00+18ssw23956 0.0 1007126
10:00+22sw346010 0.0 1007661
13:00+26sw33465 0.0 10061447
16:00+28wsw33411 0.0 10051942
19:00+26wsw235535 0.0 1005641
22:00+19ssw11800 0.0 100511
26 july, mon
mon2601:00+19s227791 0.0 100421
04:00+18s228576 0.0 100346
07:00+19s2586100 0.0 1003143
10:00+25s465736 0.0 1002638
13:00+28ssw564550 0.0 10011411
16:00+29sw674239 0.0 10002021
19:00+25wsw69562 0.0 10001409
22:00+19wnw3776100 0.1 1002251
27 july, tue
tue2701:00+15wnw3888100 0.1 1004437
04:00+12w289647 0.0 1005287
07:00+15w476684 0.0 10071212
10:00+15w46560 0.0 10081060
13:00+19w454121 0.0 10081890
16:00+19wnw4442100 0.0 10081956
19:00+15nnw4763100 0.0 1010669
22:00+12nnw1269100 0.0 101250
28 july, wed
wed2801:00+12nw1171100 0.0 101213
04:00+11wnw0072100 0.0 101212
07:00+12n1272100 0.0 101380
10:00+14n2353100 0.0 1013714
13:00+17nne2242100 0.0 10122127
16:00+17nne224579 0.0 10121639
19:00+16nne2355100 0.0 1012643
22:00+13nne1163100 0.0 101215